Regional Weather Roundup
Issued by NWS Wilmington, NC

Home | Current Version | Previous Version | Text Only | Print | Product List | Glossary On
Versions: 1 2 3 4 5 6 7 8 9 10 11 12 13 14 15 16 17 18 19 20 21 22 23 24 25 26 27
000
ASUS42 KILM 230910
RWRILM
RWRILM
REGIONAL HOURLY WEATHER ROUNDUP
NATIONAL WEATHER SERVICE WILMINGTON NC
500 AM EDT WED APR 23 2014

NOTE: "FAIR" INDICATES FEW OR NO CLOUDS BELOW 12,000 FEET WITH NO
SIGNIFICANT WEATHER AND/OR OBSTRUCTIONS TO VISIBILITY.

...............WFO WILMINGTON COUNTY WARNING AREA...............

......COASTAL NC AND SC COUNTIES......

CITY           SKY/WX    TMP DP  RH WIND       PRES   REMARKS
WILMINGTON     CLEAR     62  58  86 W8        29.70S
SOUTHPORT      CLEAR     61  59  92 W6        29.72S
N MYRTLE BEACH CLEAR     62  59  90 W6        29.73R
MYRTLE BEACH   CLEAR     63  57  82 W9        29.74R

......INLAND NC AND SC COUNTIES.......

CITY           SKY/WX    TMP DP  RH WIND       PRES   REMARKS
LUMBERTON      CLEAR     57  56  96 W5        29.73R FOG
ELIZABETHTOWN  CLEAR     60  59  97 W7        29.73R
WHITEVILLE     CLEAR     61  59  92 W3        29.72S
FLORENCE       CLEAR     61  59  93 W7        29.74R FOG
DARLINGTON     CLEAR     59  55  88 W5        29.76R

....................REST OF NORTH CAROLINA......................

.........EASTERN NC.........

CITY           SKY/WX    TMP DP  RH WIND       PRES   REMARKS
CAPE HATTERAS  PTCLDY    62 N/A N/A W7        29.64R
JACKSONVILLE   CLEAR     61  61 100 W5        29.70R
MOREHEAD CITY  CLEAR     60  57  89 CALM      29.67R
KENANSVILLE    CLEAR     60  56  88 W6        29.71R
NEW BERN       CLEAR     62  56  80 W6        29.68R
ELIZABETH CITY CLEAR     61  54  77 NW10      29.64R

.........CENTRAL NC.........

CITY           SKY/WX    TMP DP  RH WIND       PRES   REMARKS
RALEIGH DURHAM PTCLDY    58  53  84 CALM      29.72R
ROCKY MOUNT    CLEAR     62  55  77 NW8       29.68R
ROANOKE RAPIDS NOT AVBL
FAYETTEVILLE   CLEAR     58  56  93 W6        29.71R FOG
HOFFMAN        CLEAR     58  57  96 NW5       29.75R

.........WESTERN NC.........

CITY           SKY/WX    TMP DP  RH WIND       PRES   REMARKS
CHARLOTTE      CLEAR     56  53  90 NW6       29.78R
GREENSBORO     CLEAR     55  38  52 NW7       29.75R
HICKORY        NOT AVBL
BOONE          NOT AVBL
ASHEVILLE      NOT AVBL

.....................REST OF SOUTH CAROLINA.....................

.........EASTERN SC.........

CITY           SKY/WX    TMP DP  RH WIND       PRES   REMARKS
CHARLESTON     MOCLDY    63  60  90 W7        29.78S FOG
BEAUFORT MCAS  CLEAR     63  60  90 NW8       29.80R
HILTON HEAD    NOT AVBL

.........CENTRAL SC.........

CITY           SKY/WX    TMP DP  RH WIND       PRES   REMARKS
COLUMBIA       PTCLDY    55  54  96 CALM      29.77R FOG
ORANGEBURG     CLEAR     60  58  92 W6        29.78R FOG
SUMTER SHAW    CLEAR     60  59  97 W8        29.75R

.........WESTERN SC.........

CITY           SKY/WX    TMP DP  RH WIND       PRES   REMARKS
GREENVILLE     NOT AVBL
ROCK HILL      CLEAR     54  54 100 NW3       29.78R FOG
ANDERSON       CLEAR     60  56  86 W8        29.80S
CLEMSON        NOT AVBL
GREENWOOD      CLEAR     59  56  89 W5        29.81R


...................COASTAL AND OFFSHORE REPORTS..................

................LOCAL PIERS AND NC RESERVE................


STATION/POSITION TIME  SKY/WX   TEMP    WIND        PRES    VSBY
                                AIR SEA DIR/SP/G
                 (UTC)          (F)     (DEG/KT/KT) (MB)    (MI)
JOHNY MRCER PIER 0900            63 60  260/  8/ 11 1005.1R
NC RESRV MASNBRO 0800            63     250/  2     1004.0F
OCEAN CREST PIER 0900            62 61  270/  9/ 10 1005.3R
SPRINGMAID  PIER 0900            62 61  270/  7/  9 1006.8R


................COASTAL AND OFFSHORE BUOYS................


STATION/POSITION TIME  SKY/WX   TEMP    WIND        PRES    VSBY
                                AIR SEA DIR/SP/G
                 (UTC)          (F)     (DEG/KT/KT) (MB)    (MI)
DIMNDSHOAL 41025 0900            69 76  260/ 17/ 19 1002.9S
CAPE LOOKOUT     0800            63     250/ 11/ 14 1004.4F
ONSLOW BAY 41036 0900            67 69  260/ 17/ 19 1005.1S
WVE H/P(F/S)=  4/ 6 WND WVE H/P(F/S)=  3/ 6 SWL H/P/D(F/S/D)=  2/120/ 8

5 WRITEBCH 41038 0800            62 60  260/ 10/ 10 1005.5F
MASONBORO  41110 0900               60                N/A
WVE H/P(F/S)=  3/ 9 WND WVE H/P(F/S)=  3/ 9

WILM HARBR 41108 0900               61                N/A
WVE H/P(F/S)=  3/ 5 WND WVE H/P(F/S)=  3/ 5

27WRITEBCH 41037 0800            64     260/ 14/ 17 1005.1F
FRYING PAN 41013 0900            66 67  270/ 17/ 19 1005.8F
WVE H/P(F/S)=  4/ 9 WND WVE H/P(F/S)=  3/ 6 SWL H/P/D(F/S/D)=  2/100/ 9

SUNST NRSH 41024 NOT AVBL
CAPRS NRSH 41029 NOT AVBL
EDISTO     41004 0900            67 69  260/ 14/ 17 1007.5R
WVE H/P(F/S)=  3/ 9 WND WVE H/P(F/S)=  3/ 5 SWL H/P/D(F/S/D)=  2/ 9



..........OFFSHORE BUOYS BEYOND 100 NM OFFSHORE...........
.....IN A TRIANGLE---HAT TO BERMUDA TO BAHAMAS TO HAT.....


STATION/POSITION TIME  SKY/WX   TEMP    WIND        PRES    VSBY
                                AIR SEA DIR/SP/G
                 (UTC)          (F)     (DEG/KT/KT) (MB)    (MI)
150E HAT   41001 NOT AVBL
W BERMUDA  41048 0834            69 70  260/ 10/ 12 1007.7F
WVE H/P(F/S)=  4/ 8 WND WVE H/P(F/S)=  2/ 4 SWL H/P/D(F/S/D)=  5/150/ 8

ATLANTIC S 41049 0759            74 74  260/ 12/ 14 1010.3
WVE H/P(F/S)=  6/ 8 WND WVE H/P(F/S)=  2/ 4 SWL H/P/D(F/S/D)=  5/190/ 8

E BAHAMAS  41046 NOT AVBL
NE BAHAMAS 41047 0849            73 75  290/  8/ 10 1011.4R
WVE H/P(F/S)=  4/ 8 WND WVE H/P(F/S)=  2/ 4 SWL H/P/D(F/S/D)=  5/ 10/ 8

120E CANVRL41010 0900            74 75  240/ 12/ 16 1010.6S
WVE H/P(F/S)=  4/ 9 WND WVE H/P(F/S)=  2/ 3 SWL H/P/D(F/S/D)=  3/ 50/ 9


END



USA.gov is the U.S. government's official web portal to all federal, state and local government web resources and services.